This is the latest recevied weather packets stored in our database for station/object KI5RAB. If no packets are shown the sender has not sent any weather packets the latest 10 day(s).
| Time | Temp. | Humidity | Pressure | Rain* | Wind** | Luminosity | Snow |
|---|---|---|---|---|---|---|---|
| 1778284927 | 24.44° C | 80% | 1012.1 hPa | 0 mm | - | 51 W/m² | - |
| 1778284624 | 24.44° C | 80% | 1011.9 hPa | 0 mm | - | 47 W/m² | - |
| 1778284321 | 25° C | 80% | 1011.8 hPa | 0 mm | - | 49 W/m² | - |
| 1778284018 | 25° C | 79% | 1011.8 hPa | 0 mm | - | 73 W/m² | - |
| 1778283715 | 25° C | 79% | 1011.8 hPa | 0 mm | - | 94 W/m² | - |
| 1778283414 | 25° C | 78% | 1011.9 hPa | 0 mm | - | 118 W/m² | - |
| 1778283111 | 25° C | 78% | 1012.1 hPa | 0 mm | - | 110 W/m² | - |
| 1778282809 | 25° C | 78% | 1012 hPa | 0 mm | - | 106 W/m² | - |
| 1778282505 | 25.56° C | 77% | 1011.9 hPa | 0 mm | - | 134 W/m² | - |
| 1778282203 | 25° C | 78% | 1011.9 hPa | 0 mm | - | 200 W/m² | - |
| 1778281899 | 25° C | 79% | 1011.9 hPa | 0 mm | - | 138 W/m² | - |
| 1778281596 | 25° C | 78% | 1012 hPa | 0 mm | - | 147 W/m² | - |
| 1778281293 | 25° C | 78% | 1011.9 hPa | 0 mm | - | 154 W/m² | - |
| 1778280991 | 25° C | 78% | 1011.6 hPa | 0 mm | - | 144 W/m² | - |
| 1778280687 | 25.56° C | 77% | 1011.8 hPa | 0 mm | - | 214 W/m² | - |
| 1778280385 | 25.56° C | 76% | 1012 hPa | 0 mm | - | 177 W/m² | - |
| 1778280082 | 25.56° C | 76% | 1012.1 hPa | 0 mm | - | 191 W/m² | - |
| 1778279779 | 25.56° C | 76% | 1012 hPa | 0 mm | - | 280 W/m² | - |
| 1778279477 | 25° C | 78% | 1012.1 hPa | 0 mm | - | 220 W/m² | - |
| 1778279174 | 25° C | 78% | 1012.3 hPa | 0 mm | - | 197 W/m² | - |
| 1778278871 | 25° C | 77% | 1012.2 hPa | 0 mm | - | 220 W/m² | - |
| 1778278567 | 25.56° C | 76% | 1012.2 hPa | 0 mm | - | 409 W/m² | - |
| 1778278263 | 24.44° C | 78% | 1012.4 hPa | 0 mm | - | 379 W/m² | - |
| 1778277959 | 24.44° C | 78% | 1012.4 hPa | 0 mm | - | 206 W/m² | - |
| 1778277656 | 25° C | 77% | 1012.4 hPa | 0 mm | - | 167 W/m² | - |
* Rain latest hour (hover to see other rain measurements)
** Current wind speed in m/s (hover to see current wind gust speed)